Time,TemperatureF,DewpointF,PressureIn,WindDirection,WindDirectionDegrees,WindSpeedMPH,WindSpeedGustMPH,Humidity,HourlyPrecipIn,Conditions,Clouds,dailyrainin,SoftwareType,DateUTC
2013-05-02 00:00:00,61.2,54.3,30.19,East,90,6.0,16.0,78,0.00,,,0.00,WeatherCatV1.11B39,2013-05-02 04:00:00,
2013-05-02 00:05:00,61.2,54.3,30.19,East,90,6.0,16.0,78,0.00,,,0.00,WeatherCatV1.11B39,2013-05-02 04:05:00,
2013-05-02 00:10:00,61.2,54.3,30.19,East,90,6.0,16.0,78,0.00,,,0.00,WeatherCatV1.11B39,2013-05-02 04:10:00,
2013-05-02 00:15:00,61.2,54.3,30.19,East,90,6.0,16.0,78,0.00,,,0.00,WeatherCatV1.11B39,2013-05-02 04:15:00,
2013-05-02 00:20:00,61.2,54.3,30.19,East,90,6.0,16.0,78,0.00,,,0.00,WeatherCatV1.11B39,2013-05-02 04:20:00,
2013-05-02 00:25:00,60.7,54.5,30.17,ENE,68,6.0,14.0,80,0.00,,,0.00,WeatherCatV1.11B39,2013-05-02 04:25:00,
2013-05-02 00:30:00,60.7,54.5,30.17,ENE,68,6.0,14.0,80,0.00,,,0.00,WeatherCatV1.11B39,2013-05-02 04:30:00,
2013-05-02 00:35:00,60.7,54.5,30.17,ENE,68,6.0,14.0,80,0.00,,,0.00,WeatherCatV1.11B39,2013-05-02 04:35:00,
2013-05-02 00:40:00,60.7,54.5,30.17,ENE,68,6.0,14.0,80,0.00,,,0.00,WeatherCatV1.11B39,2013-05-02 04:40:00,
2013-05-02 00:45:00,60.7,54.5,30.17,ENE,68,6.0,14.0,80,0.00,,,0.00,WeatherCatV1.11B39,2013-05-02 04:45:00,
2013-05-02 00:50:00,60.7,54.5,30.17,ENE,68,6.0,14.0,80,0.00,,,0.00,WeatherCatV1.11B39,2013-05-02 04:50:00,
2013-05-02 00:55:00,60.4,54.5,30.17,East,90,5.0,12.0,81,0.00,,,0.00,WeatherCatV1.11B39,2013-05-02 04:55:00,
2013-05-02 01:00:00,60.4,54.5,30.17,East,90,5.0,12.0,81,0.00,,,0.00,WeatherCatV1.11B39,2013-05-02 05:00:00,
2013-05-02 01:05:00,60.4,54.5,30.17,East,90,5.0,12.0,81,0.00,,,0.00,WeatherCatV1.11B39,2013-05-02 05:05:00,
2013-05-02 01:10:00,60.4,54.5,30.17,East,90,5.0,12.0,81,0.00,,,0.00,WeatherCatV1.11B39,2013-05-02 05:10:00,
2013-05-02 01:15:00,60.4,54.5,30.17,East,90,5.0,12.0,81,0.00,,,0.00,WeatherCatV1.11B39,2013-05-02 05:15:00,
2013-05-02 01:20:00,60.4,54.5,30.17,East,90,5.0,12.0,81,0.00,,,0.00,WeatherCatV1.11B39,2013-05-02 05:20:00,
2013-05-02 01:25:00,60.2,54.3,30.18,ENE,68,5.0,13.0,81,0.00,,,0.00,WeatherCatV1.11B39,2013-05-02 05:25:00,
2013-05-02 01:30:00,60.2,54.3,30.18,ENE,68,5.0,13.0,81,0.00,,,0.00,WeatherCatV1.11B39,2013-05-02 05:30:00,
2013-05-02 01:35:00,60.2,54.3,30.18,ENE,68,5.0,13.0,81,0.00,,,0.00,WeatherCatV1.11B39,2013-05-02 05:35:00,
2013-05-02 01:40:00,60.2,54.3,30.18,ENE,68,5.0,13.0,81,0.00,,,0.00,WeatherCatV1.11B39,2013-05-02 05:40:00,
2013-05-02 01:45:00,60.2,54.3,30.18,ENE,68,5.0,13.0,81,0.00,,,0.00,WeatherCatV1.11B39,2013-05-02 05:45:00,
2013-05-02 01:50:00,60.2,54.3,30.18,ENE,68,5.0,13.0,81,0.00,,,0.00,WeatherCatV1.11B39,2013-05-02 05:50:00,
2013-05-02 01:55:00,59.9,54.4,30.17,ENE,68,6.0,12.0,82,0.00,,,0.00,WeatherCatV1.11B39,2013-05-02 05:55:00,
2013-05-02 02:00:00,59.9,54.4,30.17,ENE,68,6.0,12.0,82,0.00,,,0.00,WeatherCatV1.11B39,2013-05-02 06:00:00,
2013-05-02 02:05:00,59.9,54.4,30.17,ENE,68,6.0,12.0,82,0.00,,,0.00,WeatherCatV1.11B39,2013-05-02 06:05:00,
2013-05-02 02:10:00,59.9,54.4,30.17,ENE,68,6.0,12.0,82,0.00,,,0.00,WeatherCatV1.11B39,2013-05-02 06:10:00,
2013-05-02 02:15:00,59.9,54.4,30.17,ENE,68,6.0,12.0,82,0.00,,,0.00,WeatherCatV1.11B39,2013-05-02 06:15:00,
2013-05-02 02:20:00,59.9,54.4,30.17,ENE,68,6.0,12.0,82,0.00,,,0.00,WeatherCatV1.11B39,2013-05-02 06:20:00,
2013-05-02 02:25:00,59.9,54.7,30.16,ENE,68,6.0,17.0,83,0.00,,,0.00,WeatherCatV1.11B39,2013-05-02 06:25:00,
2013-05-02 02:30:00,59.9,54.7,30.16,ENE,68,6.0,17.0,83,0.00,,,0.00,WeatherCatV1.11B39,2013-05-02 06:30:00,
2013-05-02 02:35:00,59.9,54.7,30.16,ENE,68,6.0,17.0,83,0.00,,,0.00,WeatherCatV1.11B39,2013-05-02 06:35:00,
2013-05-02 02:40:00,59.9,54.7,30.16,ENE,68,6.0,17.0,83,0.00,,,0.00,WeatherCatV1.11B39,2013-05-02 06:40:00,
2013-05-02 02:45:00,59.9,54.7,30.16,ENE,68,6.0,17.0,83,0.00,,,0.00,WeatherCatV1.11B39,2013-05-02 06:45:00,
2013-05-02 02:50:00,59.9,54.7,30.16,ENE,68,6.0,17.0,83,0.00,,,0.00,WeatherCatV1.11B39,2013-05-02 06:50:00,
2013-05-02 02:55:00,59.8,54.0,30.15,ENE,68,7.0,15.0,81,0.00,,,0.00,WeatherCatV1.11B39,2013-05-02 06:55:00,
2013-05-02 03:00:00,59.8,54.0,30.15,ENE,68,7.0,15.0,81,0.00,,,0.00,WeatherCatV1.11B39,2013-05-02 07:00:00,
2013-05-02 03:05:00,59.8,54.0,30.15,ENE,68,7.0,15.0,81,0.00,,,0.00,WeatherCatV1.11B39,2013-05-02 07:05:00,
2013-05-02 03:10:00,59.8,54.0,30.15,ENE,68,7.0,15.0,81,0.00,,,0.00,WeatherCatV1.11B39,2013-05-02 07:10:00,
2013-05-02 03:15:00,59.8,54.0,30.15,ENE,68,7.0,15.0,81,0.00,,,0.00,WeatherCatV1.11B39,2013-05-02 07:15:00,
2013-05-02 03:20:00,59.8,54.0,30.15,ENE,68,7.0,15.0,81,0.00,,,0.00,WeatherCatV1.11B39,2013-05-02 07:20:00,
2013-05-02 03:25:00,59.5,54.0,30.15,East,90,6.0,16.0,82,0.00,,,0.00,WeatherCatV1.11B39,2013-05-02 07:25:00,
2013-05-02 03:30:00,59.5,54.0,30.15,East,90,6.0,16.0,82,0.00,,,0.00,WeatherCatV1.11B39,2013-05-02 07:30:00,
2013-05-02 03:35:00,59.5,54.0,30.15,East,90,6.0,16.0,82,0.00,,,0.00,WeatherCatV1.11B39,2013-05-02 07:35:00,
2013-05-02 03:40:00,59.5,54.0,30.15,East,90,6.0,16.0,82,0.00,,,0.00,WeatherCatV1.11B39,2013-05-02 07:40:00,
2013-05-02 03:45:00,59.5,54.0,30.15,East,90,6.0,16.0,82,0.00,,,0.00,WeatherCatV1.11B39,2013-05-02 07:45:00,
2013-05-02 03:50:00,59.5,54.0,30.15,East,90,6.0,16.0,82,0.00,,,0.00,WeatherCatV1.11B39,2013-05-02 07:50:00,
2013-05-02 03:55:00,59.5,54.0,30.15,East,90,6.0,16.0,82,0.00,,,0.00,WeatherCatV1.11B39,2013-05-02 07:55:00,
2013-05-02 04:00:00,59.6,54.4,30.15,ENE,68,6.0,14.0,83,0.00,,,0.00,WeatherCatV1.11B39,2013-05-02 08:00:00,
2013-05-02 04:05:00,59.6,54.4,30.15,ENE,68,6.0,14.0,83,0.00,,,0.00,WeatherCatV1.11B39,2013-05-02 08:05:00,
2013-05-02 04:10:00,59.6,54.4,30.15,ENE,68,6.0,14.0,83,0.00,,,0.00,WeatherCatV1.11B39,2013-05-02 08:10:00,
2013-05-02 04:15:00,59.6,54.4,30.15,ENE,68,6.0,14.0,83,0.00,,,0.00,WeatherCatV1.11B39,2013-05-02 08:15:00,
2013-05-02 04:20:00,59.6,54.4,30.15,ENE,68,6.0,14.0,83,0.00,,,0.00,WeatherCatV1.11B39,2013-05-02 08:20:00,
2013-05-02 04:25:00,59.5,54.3,30.14,ENE,68,7.0,19.0,83,0.00,,,0.00,WeatherCatV1.11B39,2013-05-02 08:25:00,
2013-05-02 04:30:00,59.5,54.3,30.14,ENE,68,7.0,19.0,83,0.00,,,0.00,WeatherCatV1.11B39,2013-05-02 08:30:00,
2013-05-02 04:35:00,59.5,54.3,30.14,ENE,68,7.0,19.0,83,0.00,,,0.00,WeatherCatV1.11B39,2013-05-02 08:35:00,
2013-05-02 04:40:00,59.5,54.3,30.14,ENE,68,7.0,19.0,83,0.00,,,0.00,WeatherCatV1.11B39,2013-05-02 08:40:00,
2013-05-02 04:45:00,59.5,54.3,30.14,ENE,68,7.0,19.0,83,0.00,,,0.00,WeatherCatV1.11B39,2013-05-02 08:45:00,
2013-05-02 04:50:00,59.5,54.3,30.14,ENE,68,7.0,19.0,83,0.00,,,0.00,WeatherCatV1.11B39,2013-05-02 08:50:00,
2013-05-02 04:55:00,59.6,54.4,30.13,ENE,68,7.0,14.0,83,0.00,,,0.00,WeatherCatV1.11B39,2013-05-02 08:55:00,
2013-05-02 05:00:00,59.6,54.4,30.13,ENE,68,7.0,14.0,83,0.00,,,0.00,WeatherCatV1.11B39,2013-05-02 09:00:00,
2013-05-02 05:05:00,59.6,54.4,30.13,ENE,68,7.0,14.0,83,0.00,,,0.00,WeatherCatV1.11B39,2013-05-02 09:05:00,
2013-05-02 05:10:00,59.6,54.4,30.13,ENE,68,7.0,14.0,83,0.00,,,0.00,WeatherCatV1.11B39,2013-05-02 09:10:00,
2013-05-02 05:15:00,59.6,54.4,30.13,ENE,68,7.0,14.0,83,0.00,,,0.00,WeatherCatV1.11B39,2013-05-02 09:15:00,
2013-05-02 05:20:00,59.6,54.4,30.13,ENE,68,7.0,14.0,83,0.00,,,0.00,WeatherCatV1.11B39,2013-05-02 09:20:00,
2013-05-02 05:25:00,59.6,54.4,30.13,East,90,6.0,13.0,83,0.00,,,0.00,WeatherCatV1.11B39,2013-05-02 09:25:00,
2013-05-02 05:30:00,59.6,54.4,30.13,East,90,6.0,13.0,83,0.00,,,0.00,WeatherCatV1.11B39,2013-05-02 09:30:00,
2013-05-02 05:35:00,59.6,54.4,30.13,East,90,6.0,13.0,83,0.00,,,0.00,WeatherCatV1.11B39,2013-05-02 09:35:00,
2013-05-02 05:40:00,59.6,54.4,30.13,East,90,6.0,13.0,83,0.00,,,0.00,WeatherCatV1.11B39,2013-05-02 09:40:00,
2013-05-02 05:45:00,59.6,54.4,30.13,East,90,6.0,13.0,83,0.00,,,0.00,WeatherCatV1.11B39,2013-05-02 09:45:00,
2013-05-02 05:50:00,59.6,54.4,30.13,East,90,6.0,13.0,83,0.00,,,0.00,WeatherCatV1.11B39,2013-05-02 09:50:00,
2013-05-02 05:55:00,59.6,54.8,30.14,East,90,7.0,14.0,84,0.00,,,0.00,WeatherCatV1.11B39,2013-05-02 09:55:00,
2013-05-02 06:00:00,59.6,54.8,30.14,East,90,7.0,14.0,84,0.00,,,0.00,WeatherCatV1.11B39,2013-05-02 10:00:00,
2013-05-02 06:05:00,59.6,54.8,30.14,East,90,7.0,14.0,84,0.00,,,0.00,WeatherCatV1.11B39,2013-05-02 10:05:00,
2013-05-02 06:10:00,59.6,54.8,30.14,East,90,7.0,14.0,84,0.00,,,0.00,WeatherCatV1.11B39,2013-05-02 10:10:00,
2013-05-02 06:15:00,59.6,54.8,30.14,East,90,7.0,14.0,84,0.00,,,0.00,WeatherCatV1.11B39,2013-05-02 10:15:00,
2013-05-02 06:20:00,59.6,54.8,30.14,East,90,7.0,14.0,84,0.00,,,0.00,WeatherCatV1.11B39,2013-05-02 10:20:00,
2013-05-02 06:25:00,59.3,55.4,30.13,ENE,68,8.0,17.0,87,0.00,,,0.00,WeatherCatV1.11B39,2013-05-02 10:25:00,
2013-05-02 06:30:00,59.3,55.4,30.13,ENE,68,8.0,17.0,87,0.00,,,0.00,WeatherCatV1.11B39,2013-05-02 10:30:00,
2013-05-02 06:35:00,59.3,55.4,30.13,ENE,68,8.0,17.0,87,0.00,,,0.00,WeatherCatV1.11B39,2013-05-02 10:35:00,
2013-05-02 06:40:00,59.3,55.4,30.13,ENE,68,8.0,17.0,87,0.00,,,0.00,WeatherCatV1.11B39,2013-05-02 10:40:00,
2013-05-02 06:45:00,59.3,55.4,30.13,ENE,68,8.0,17.0,87,0.00,,,0.00,WeatherCatV1.11B39,2013-05-02 10:45:00,
2013-05-02 06:50:00,59.3,55.4,30.13,ENE,68,8.0,17.0,87,0.00,,,0.00,WeatherCatV1.11B39,2013-05-02 10:50:00,
2013-05-02 06:55:00,59.2,55.3,30.13,ENE,68,8.0,17.0,87,0.00,,,0.00,WeatherCatV1.11B39,2013-05-02 10:55:00,
2013-05-02 07:00:00,59.2,55.3,30.13,ENE,68,8.0,17.0,87,0.00,,,0.00,WeatherCatV1.11B39,2013-05-02 11:00:00,
2013-05-02 07:05:00,59.2,55.3,30.13,ENE,68,8.0,17.0,87,0.00,,,0.00,WeatherCatV1.11B39,2013-05-02 11:05:00,
2013-05-02 07:10:00,59.2,55.3,30.13,ENE,68,8.0,17.0,87,0.00,,,0.00,WeatherCatV1.11B39,2013-05-02 11:10:00,
2013-05-02 07:15:00,59.2,55.3,30.13,ENE,68,8.0,17.0,87,0.00,,,0.00,WeatherCatV1.11B39,2013-05-02 11:15:00,
2013-05-02 07:20:00,59.2,55.3,30.13,ENE,68,8.0,17.0,87,0.00,,,0.00,WeatherCatV1.11B39,2013-05-02 11:20:00,
2013-05-02 07:25:00,59.2,55.3,30.14,ENE,68,7.0,17.0,87,0.00,,,0.00,WeatherCatV1.11B39,2013-05-02 11:25:00,
2013-05-02 07:30:00,59.2,55.3,30.14,ENE,68,7.0,17.0,87,0.00,,,0.00,WeatherCatV1.11B39,2013-05-02 11:30:00,
2013-05-02 07:35:00,59.2,55.3,30.14,ENE,68,7.0,17.0,87,0.00,,,0.00,WeatherCatV1.11B39,2013-05-02 11:35:00,
2013-05-02 07:40:00,59.2,55.3,30.14,ENE,68,7.0,17.0,87,0.00,,,0.00,WeatherCatV1.11B39,2013-05-02 11:40:00,
2013-05-02 07:45:00,59.2,55.3,30.14,ENE,68,7.0,17.0,87,0.00,,,0.00,WeatherCatV1.11B39,2013-05-02 11:45:00,
2013-05-02 07:50:00,59.2,55.3,30.14,ENE,68,7.0,17.0,87,0.00,,,0.00,WeatherCatV1.11B39,2013-05-02 11:50:00,
2013-05-02 07:55:00,59.0,55.1,30.14,East,90,6.0,14.0,87,0.00,,,0.00,WeatherCatV1.11B39,2013-05-02 11:55:00,
2013-05-02 08:00:00,59.0,55.1,30.14,East,90,6.0,14.0,87,0.00,,,0.00,WeatherCatV1.11B39,2013-05-02 12:00:00,
2013-05-02 08:05:00,59.0,55.1,30.14,East,90,6.0,14.0,87,0.00,,,0.00,WeatherCatV1.11B39,2013-05-02 12:05:00,
2013-05-02 08:10:00,59.0,55.1,30.14,East,90,6.0,14.0,87,0.00,,,0.00,WeatherCatV1.11B39,2013-05-02 12:10:00,
2013-05-02 08:15:00,59.0,55.1,30.14,East,90,6.0,14.0,87,0.00,,,0.00,WeatherCatV1.11B39,2013-05-02 12:15:00,
2013-05-02 08:20:00,59.0,55.1,30.14,East,90,6.0,14.0,87,0.00,,,0.00,WeatherCatV1.11B39,2013-05-02 12:20:00,
2013-05-02 08:25:00,58.9,55.3,30.14,East,90,8.0,21.0,88,0.00,,,0.00,WeatherCatV1.11B39,2013-05-02 12:25:00,
2013-05-02 08:30:00,58.9,55.3,30.14,East,90,8.0,21.0,88,0.00,,,0.00,WeatherCatV1.11B39,2013-05-02 12:30:00,
2013-05-02 08:35:00,58.9,55.3,30.14,East,90,8.0,21.0,88,0.00,,,0.00,WeatherCatV1.11B39,2013-05-02 12:35:00,
2013-05-02 08:40:00,58.9,55.3,30.14,East,90,8.0,21.0,88,0.00,,,0.00,WeatherCatV1.11B39,2013-05-02 12:40:00,
2013-05-02 08:45:00,58.9,55.3,30.14,East,90,8.0,21.0,88,0.00,,,0.00,WeatherCatV1.11B39,2013-05-02 12:45:00,
2013-05-02 08:50:00,58.9,55.3,30.14,East,90,8.0,21.0,88,0.00,,,0.00,WeatherCatV1.11B39,2013-05-02 12:50:00,
2013-05-02 08:55:00,58.7,55.5,30.16,East,90,8.0,16.0,89,0.00,,,0.00,WeatherCatV1.11B39,2013-05-02 12:55:00,
2013-05-02 09:00:00,58.7,55.5,30.16,East,90,8.0,16.0,89,0.00,,,0.00,WeatherCatV1.11B39,2013-05-02 13:00:00,
2013-05-02 09:05:00,58.7,55.5,30.16,East,90,8.0,16.0,89,0.00,,,0.00,WeatherCatV1.11B39,2013-05-02 13:05:00,
2013-05-02 09:10:00,58.7,55.5,30.16,East,90,8.0,16.0,89,0.00,,,0.00,WeatherCatV1.11B39,2013-05-02 13:10:00,
2013-05-02 09:15:00,58.7,55.5,30.16,East,90,8.0,16.0,89,0.00,,,0.00,WeatherCatV1.11B39,2013-05-02 13:15:00,
2013-05-02 09:20:00,58.7,55.5,30.16,East,90,8.0,16.0,89,0.00,,,0.00,WeatherCatV1.11B39,2013-05-02 13:20:00,
2013-05-02 09:25:00,58.6,55.4,30.17,East,90,7.0,18.0,89,0.00,,,0.00,WeatherCatV1.11B39,2013-05-02 13:25:00,
2013-05-02 09:30:00,58.6,55.4,30.17,East,90,7.0,18.0,89,0.00,,,0.00,WeatherCatV1.11B39,2013-05-02 13:30:00,
2013-05-02 09:35:00,58.6,55.4,30.17,East,90,7.0,18.0,89,0.00,,,0.00,WeatherCatV1.11B39,2013-05-02 13:35:00,
2013-05-02 09:40:00,58.6,55.4,30.17,East,90,7.0,18.0,89,0.00,,,0.00,WeatherCatV1.11B39,2013-05-02 13:40:00,
2013-05-02 09:45:00,58.6,55.4,30.17,East,90,7.0,18.0,89,0.00,,,0.00,WeatherCatV1.11B39,2013-05-02 13:45:00,
2013-05-02 09:50:00,58.6,55.4,30.17,East,90,7.0,18.0,89,0.00,,,0.00,WeatherCatV1.11B39,2013-05-02 13:50:00,
2013-05-02 09:55:00,58.7,55.5,30.18,ENE,68,9.0,18.0,89,0.00,,,0.00,WeatherCatV1.11B39,2013-05-02 13:55:00,
2013-05-02 10:00:00,58.7,55.5,30.18,ENE,68,9.0,18.0,89,0.00,,,0.00,WeatherCatV1.11B39,2013-05-02 14:00:00,
2013-05-02 10:05:00,58.7,55.5,30.18,ENE,68,9.0,18.0,89,0.00,,,0.00,WeatherCatV1.11B39,2013-05-02 14:05:00,
2013-05-02 10:10:00,58.7,55.5,30.18,ENE,68,9.0,18.0,89,0.00,,,0.00,WeatherCatV1.11B39,2013-05-02 14:10:00,
2013-05-02 10:15:00,58.7,55.5,30.18,ENE,68,9.0,18.0,89,0.00,,,0.00,WeatherCatV1.11B39,2013-05-02 14:15:00,
2013-05-02 10:20:00,58.7,55.5,30.18,ENE,68,9.0,18.0,89,0.00,,,0.00,WeatherCatV1.11B39,2013-05-02 14:20:00,
2013-05-02 10:25:00,58.4,56.1,30.18,East,90,7.0,16.0,92,0.00,,,0.00,WeatherCatV1.11B39,2013-05-02 14:25:00,
2013-05-02 10:30:00,58.4,56.1,30.18,East,90,7.0,16.0,92,0.00,,,0.00,WeatherCatV1.11B39,2013-05-02 14:30:00,
2013-05-02 10:35:00,58.4,56.1,30.18,East,90,7.0,16.0,92,0.00,,,0.00,WeatherCatV1.11B39,2013-05-02 14:35:00,
2013-05-02 10:40:00,58.4,56.1,30.18,East,90,7.0,16.0,92,0.00,,,0.00,WeatherCatV1.11B39,2013-05-02 14:40:00,
2013-05-02 10:45:00,58.4,56.1,30.18,East,90,7.0,16.0,92,0.00,,,0.00,WeatherCatV1.11B39,2013-05-02 14:45:00,
2013-05-02 10:50:00,58.4,56.1,30.18,East,90,7.0,16.0,92,0.00,,,0.00,WeatherCatV1.11B39,2013-05-02 14:50:00,
2013-05-02 10:55:00,58.7,56.4,30.18,ENE,68,6.0,14.0,92,0.00,,,0.00,WeatherCatV1.11B39,2013-05-02 14:55:00,
2013-05-02 11:00:00,58.7,56.4,30.18,ENE,68,6.0,14.0,92,0.00,,,0.00,WeatherCatV1.11B39,2013-05-02 15:00:00,
2013-05-02 11:05:00,58.7,56.4,30.18,ENE,68,6.0,14.0,92,0.00,,,0.00,WeatherCatV1.11B39,2013-05-02 15:05:00,
2013-05-02 11:10:00,58.7,56.4,30.18,ENE,68,6.0,14.0,92,0.00,,,0.00,WeatherCatV1.11B39,2013-05-02 15:10:00,
2013-05-02 11:15:00,58.7,56.4,30.18,ENE,68,6.0,14.0,92,0.00,,,0.00,WeatherCatV1.11B39,2013-05-02 15:15:00,
2013-05-02 11:20:00,58.7,56.4,30.18,ENE,68,6.0,14.0,92,0.00,,,0.00,WeatherCatV1.11B39,2013-05-02 15:20:00,
2013-05-02 11:25:00,59.0,56.1,30.18,East,90,8.0,18.0,90,0.00,,,0.00,WeatherCatV1.11B39,2013-05-02 15:25:00,
2013-05-02 11:30:00,59.0,56.1,30.18,East,90,8.0,18.0,90,0.00,,,0.00,WeatherCatV1.11B39,2013-05-02 15:30:00,
2013-05-02 11:35:00,59.0,56.1,30.18,East,90,8.0,18.0,90,0.00,,,0.00,WeatherCatV1.11B39,2013-05-02 15:35:00,
2013-05-02 11:40:00,59.0,56.1,30.18,East,90,8.0,18.0,90,0.00,,,0.00,WeatherCatV1.11B39,2013-05-02 15:40:00,
2013-05-02 11:45:00,59.0,56.1,30.18,East,90,8.0,18.0,90,0.00,,,0.00,WeatherCatV1.11B39,2013-05-02 15:45:00,
2013-05-02 11:50:00,59.0,56.1,30.18,East,90,8.0,18.0,90,0.00,,,0.00,WeatherCatV1.11B39,2013-05-02 15:50:00,
2013-05-02 11:55:00,59.0,56.1,30.18,East,90,8.0,18.0,90,0.00,,,0.00,WeatherCatV1.11B39,2013-05-02 15:55:00,
2013-05-02 12:00:00,59.5,56.6,30.19,East,90,7.0,13.0,90,0.00,,,0.00,WeatherCatV1.11B39,2013-05-02 16:00:00,
2013-05-02 12:05:00,59.5,56.6,30.19,East,90,7.0,13.0,90,0.00,,,0.00,WeatherCatV1.11B39,2013-05-02 16:05:00,
2013-05-02 12:10:00,59.5,56.6,30.19,East,90,7.0,13.0,90,0.00,,,0.00,WeatherCatV1.11B39,2013-05-02 16:10:00,
2013-05-02 12:15:00,59.5,56.6,30.19,East,90,7.0,13.0,90,0.00,,,0.00,WeatherCatV1.11B39,2013-05-02 16:15:00,
2013-05-02 12:20:00,59.5,56.6,30.19,East,90,7.0,13.0,90,0.00,,,0.00,WeatherCatV1.11B39,2013-05-02 16:20:00,
2013-05-02 12:25:00,59.5,56.6,30.19,East,90,7.0,13.0,90,0.00,,,0.00,WeatherCatV1.11B39,2013-05-02 16:25:00,
2013-05-02 12:30:00,59.6,56.7,30.19,East,90,7.0,17.0,90,0.00,,,0.00,WeatherCatV1.11B39,2013-05-02 16:30:00,
2013-05-02 12:35:00,59.6,56.7,30.19,East,90,7.0,17.0,90,0.00,,,0.00,WeatherCatV1.11B39,2013-05-02 16:35:00,
2013-05-02 12:40:00,59.6,56.7,30.19,East,90,7.0,17.0,90,0.00,,,0.00,WeatherCatV1.11B39,2013-05-02 16:40:00,
2013-05-02 12:45:00,59.6,56.7,30.19,East,90,7.0,17.0,90,0.00,,,0.00,WeatherCatV1.11B39,2013-05-02 16:45:00,
2013-05-02 12:50:00,59.6,56.7,30.19,East,90,7.0,17.0,90,0.00,,,0.00,WeatherCatV1.11B39,2013-05-02 16:50:00,
2013-05-02 12:55:00,59.3,57.0,30.20,East,90,8.0,17.0,92,0.00,,,0.00,WeatherCatV1.11B39,2013-05-02 16:55:00,
2013-05-02 13:00:00,59.3,57.0,30.20,East,90,8.0,17.0,92,0.00,,,0.00,WeatherCatV1.11B39,2013-05-02 17:00:00,
2013-05-02 13:05:00,59.3,57.0,30.20,East,90,8.0,17.0,92,0.00,,,0.00,WeatherCatV1.11B39,2013-05-02 17:05:00,
2013-05-02 13:10:00,59.3,57.0,30.20,East,90,8.0,17.0,92,0.00,,,0.00,WeatherCatV1.11B39,2013-05-02 17:10:00,
2013-05-02 13:15:00,59.3,57.0,30.20,East,90,8.0,17.0,92,0.00,,,0.00,WeatherCatV1.11B39,2013-05-02 17:15:00,
2013-05-02 13:20:00,59.3,57.0,30.20,East,90,8.0,17.0,92,0.00,,,0.00,WeatherCatV1.11B39,2013-05-02 17:20:00,
2013-05-02 13:25:00,59.3,57.0,30.19,East,90,7.0,15.0,92,0.00,,,0.00,WeatherCatV1.11B39,2013-05-02 17:25:00,
2013-05-02 13:30:00,59.3,57.0,30.19,East,90,7.0,15.0,92,0.00,,,0.00,WeatherCatV1.11B39,2013-05-02 17:30:00,
2013-05-02 13:35:00,59.3,57.0,30.19,East,90,7.0,15.0,92,0.00,,,0.00,WeatherCatV1.11B39,2013-05-02 17:35:00,
2013-05-02 13:40:00,59.3,57.0,30.19,East,90,7.0,15.0,92,0.00,,,0.00,WeatherCatV1.11B39,2013-05-02 17:40:00,
2013-05-02 13:45:00,59.3,57.0,30.19,East,90,7.0,15.0,92,0.00,,,0.00,WeatherCatV1.11B39,2013-05-02 17:45:00,
2013-05-02 13:50:00,59.3,57.0,30.19,East,90,7.0,15.0,92,0.00,,,0.00,WeatherCatV1.11B39,2013-05-02 17:50:00,
2013-05-02 13:55:00,59.8,56.9,30.18,ENE,68,7.0,18.0,90,0.00,,,0.00,WeatherCatV1.11B39,2013-05-02 17:55:00,
2013-05-02 14:00:00,59.8,56.9,30.18,ENE,68,7.0,18.0,90,0.00,,,0.00,WeatherCatV1.11B39,2013-05-02 18:00:00,
2013-05-02 14:05:00,59.8,56.9,30.18,ENE,68,7.0,18.0,90,0.00,,,0.00,WeatherCatV1.11B39,2013-05-02 18:05:00,
2013-05-02 14:10:00,59.8,56.9,30.18,ENE,68,7.0,18.0,90,0.00,,,0.00,WeatherCatV1.11B39,2013-05-02 18:10:00,
2013-05-02 14:15:00,59.8,56.9,30.18,ENE,68,7.0,18.0,90,0.00,,,0.00,WeatherCatV1.11B39,2013-05-02 18:15:00,
2013-05-02 14:20:00,59.8,56.9,30.18,ENE,68,7.0,18.0,90,0.00,,,0.00,WeatherCatV1.11B39,2013-05-02 18:20:00,
2013-05-02 14:25:00,60.2,56.6,30.18,East,90,9.0,18.0,88,0.00,,,0.00,WeatherCatV1.11B39,2013-05-02 18:25:00,
2013-05-02 14:30:00,60.2,56.6,30.18,East,90,9.0,18.0,88,0.00,,,0.00,WeatherCatV1.11B39,2013-05-02 18:30:00,
2013-05-02 14:35:00,60.2,56.6,30.18,East,90,9.0,18.0,88,0.00,,,0.00,WeatherCatV1.11B39,2013-05-02 18:35:00,
2013-05-02 14:40:00,60.2,56.6,30.18,East,90,9.0,18.0,88,0.00,,,0.00,WeatherCatV1.11B39,2013-05-02 18:40:00,
2013-05-02 14:45:00,60.2,56.6,30.18,East,90,9.0,18.0,88,0.00,,,0.00,WeatherCatV1.11B39,2013-05-02 18:45:00,
2013-05-02 14:50:00,60.2,56.6,30.18,East,90,9.0,18.0,88,0.00,,,0.00,WeatherCatV1.11B39,2013-05-02 18:50:00,
2013-05-02 14:55:00,61.0,56.5,30.17,East,90,8.0,14.0,85,0.00,,,0.00,WeatherCatV1.11B39,2013-05-02 18:55:00,
2013-05-02 15:00:00,61.0,56.5,30.17,East,90,8.0,14.0,85,0.00,,,0.00,WeatherCatV1.11B39,2013-05-02 19:00:00,
2013-05-02 15:05:00,61.0,56.5,30.17,East,90,8.0,14.0,85,0.00,,,0.00,WeatherCatV1.11B39,2013-05-02 19:05:00,
2013-05-02 15:10:00,61.0,56.5,30.17,East,90,8.0,14.0,85,0.00,,,0.00,WeatherCatV1.11B39,2013-05-02 19:10:00,
2013-05-02 15:15:00,61.0,56.5,30.17,East,90,8.0,14.0,85,0.00,,,0.00,WeatherCatV1.11B39,2013-05-02 19:15:00,
2013-05-02 15:20:00,61.0,56.5,30.17,East,90,8.0,14.0,85,0.00,,,0.00,WeatherCatV1.11B39,2013-05-02 19:20:00,
2013-05-02 15:25:00,61.6,56.4,30.17,East,90,8.0,18.0,83,0.00,,,0.00,WeatherCatV1.11B39,2013-05-02 19:25:00,
2013-05-02 15:30:00,61.6,56.4,30.17,East,90,8.0,18.0,83,0.00,,,0.00,WeatherCatV1.11B39,2013-05-02 19:30:00,
2013-05-02 15:35:00,61.6,56.4,30.17,East,90,8.0,18.0,83,0.00,,,0.00,WeatherCatV1.11B39,2013-05-02 19:35:00,
2013-05-02 15:40:00,61.6,56.4,30.17,East,90,8.0,18.0,83,0.00,,,0.00,WeatherCatV1.11B39,2013-05-02 19:40:00,
2013-05-02 15:45:00,61.6,56.4,30.17,East,90,8.0,18.0,83,0.00,,,0.00,WeatherCatV1.11B39,2013-05-02 19:45:00,
2013-05-02 15:50:00,61.6,56.4,30.17,East,90,8.0,18.0,83,0.00,,,0.00,WeatherCatV1.11B39,2013-05-02 19:50:00,
2013-05-02 15:55:00,61.6,57.0,30.16,East,90,7.0,15.0,85,0.00,,,0.00,WeatherCatV1.11B39,2013-05-02 19:55:00,
2013-05-02 16:00:00,61.6,57.0,30.16,East,90,7.0,15.0,85,0.00,,,0.00,WeatherCatV1.11B39,2013-05-02 20:00:00,
2013-05-02 16:05:00,61.6,57.0,30.16,East,90,7.0,15.0,85,0.00,,,0.00,WeatherCatV1.11B39,2013-05-02 20:05:00,
2013-05-02 16:10:00,61.6,57.0,30.16,East,90,7.0,15.0,85,0.00,,,0.00,WeatherCatV1.11B39,2013-05-02 20:10:00,
2013-05-02 16:15:00,61.6,57.0,30.16,East,90,7.0,15.0,85,0.00,,,0.00,WeatherCatV1.11B39,2013-05-02 20:15:00,
2013-05-02 16:20:00,61.6,57.0,30.16,East,90,7.0,15.0,85,0.00,,,0.00,WeatherCatV1.11B39,2013-05-02 20:20:00,
2013-05-02 16:25:00,61.6,57.0,30.15,ESE,112,7.0,20.0,85,0.00,,,0.00,WeatherCatV1.11B39,2013-05-02 20:25:00,
2013-05-02 16:30:00,61.6,57.0,30.15,ESE,112,7.0,20.0,85,0.00,,,0.00,WeatherCatV1.11B39,2013-05-02 20:30:00,
2013-05-02 16:35:00,61.6,57.0,30.15,ESE,112,7.0,20.0,85,0.00,,,0.00,WeatherCatV1.11B39,2013-05-02 20:35:00,
2013-05-02 16:40:00,61.6,57.0,30.15,ESE,112,7.0,20.0,85,0.00,,,0.00,WeatherCatV1.11B39,2013-05-02 20:40:00,
2013-05-02 16:45:00,61.6,57.0,30.15,ESE,112,7.0,20.0,85,0.00,,,0.00,WeatherCatV1.11B39,2013-05-02 20:45:00,
2013-05-02 16:50:00,61.6,57.0,30.15,ESE,112,7.0,20.0,85,0.00,,,0.00,WeatherCatV1.11B39,2013-05-02 20:50:00,
2013-05-02 16:55:00,61.2,56.6,30.15,East,90,8.0,19.0,85,0.00,,,0.00,WeatherCatV1.11B39,2013-05-02 20:55:00,
2013-05-02 17:00:00,61.2,56.6,30.15,East,90,8.0,19.0,85,0.00,,,0.00,WeatherCatV1.11B39,2013-05-02 21:00:00,
2013-05-02 17:05:00,61.2,56.6,30.15,East,90,8.0,19.0,85,0.00,,,0.00,WeatherCatV1.11B39,2013-05-02 21:05:00,
2013-05-02 17:10:00,61.2,56.6,30.15,East,90,8.0,19.0,85,0.00,,,0.00,WeatherCatV1.11B39,2013-05-02 21:10:00,
2013-05-02 17:15:00,61.2,56.6,30.15,East,90,8.0,19.0,85,0.00,,,0.00,WeatherCatV1.11B39,2013-05-02 21:15:00,
2013-05-02 17:20:00,61.2,56.6,30.15,East,90,8.0,19.0,85,0.00,,,0.00,WeatherCatV1.11B39,2013-05-02 21:20:00,
2013-05-02 17:25:00,60.5,56.6,30.14,ENE,68,8.0,19.0,87,0.00,,,0.00,WeatherCatV1.11B39,2013-05-02 21:25:00,
2013-05-02 17:30:00,60.5,56.6,30.14,ENE,68,8.0,19.0,87,0.00,,,0.00,WeatherCatV1.11B39,2013-05-02 21:30:00,
2013-05-02 17:35:00,60.5,56.6,30.14,ENE,68,8.0,19.0,87,0.00,,,0.00,WeatherCatV1.11B39,2013-05-02 21:35:00,
2013-05-02 17:40:00,60.5,56.6,30.14,ENE,68,8.0,19.0,87,0.00,,,0.00,WeatherCatV1.11B39,2013-05-02 21:40:00,
2013-05-02 17:45:00,60.5,56.6,30.14,ENE,68,8.0,19.0,87,0.00,,,0.00,WeatherCatV1.11B39,2013-05-02 21:45:00,
2013-05-02 17:50:00,60.5,56.6,30.14,ENE,68,8.0,19.0,87,0.00,,,0.00,WeatherCatV1.11B39,2013-05-02 21:50:00,
2013-05-02 17:55:00,61.3,56.4,30.12,East,90,6.0,17.0,84,0.00,,,0.00,WeatherCatV1.11B39,2013-05-02 21:55:00,
2013-05-02 18:00:00,61.3,56.4,30.12,East,90,6.0,17.0,84,0.00,,,0.00,WeatherCatV1.11B39,2013-05-02 22:00:00,
2013-05-02 18:05:00,61.3,56.4,30.12,East,90,6.0,17.0,84,0.00,,,0.00,WeatherCatV1.11B39,2013-05-02 22:05:00,
2013-05-02 18:10:00,61.3,56.4,30.12,East,90,6.0,17.0,84,0.00,,,0.00,WeatherCatV1.11B39,2013-05-02 22:10:00,
2013-05-02 18:15:00,61.3,56.4,30.12,East,90,6.0,17.0,84,0.00,,,0.00,WeatherCatV1.11B39,2013-05-02 22:15:00,
2013-05-02 18:20:00,61.3,56.4,30.12,East,90,6.0,17.0,84,0.00,,,0.00,WeatherCatV1.11B39,2013-05-02 22:20:00,
2013-05-02 18:25:00,63.2,56.6,30.12,ENE,68,8.0,18.0,79,0.00,,,0.00,WeatherCatV1.11B39,2013-05-02 22:25:00,
2013-05-02 18:30:00,63.2,56.6,30.12,ENE,68,8.0,18.0,79,0.00,,,0.00,WeatherCatV1.11B39,2013-05-02 22:30:00,
2013-05-02 18:35:00,63.2,56.6,30.12,ENE,68,8.0,18.0,79,0.00,,,0.00,WeatherCatV1.11B39,2013-05-02 22:35:00,
2013-05-02 18:40:00,63.2,56.6,30.12,ENE,68,8.0,18.0,79,0.00,,,0.00,WeatherCatV1.11B39,2013-05-02 22:40:00,
2013-05-02 18:45:00,63.2,56.6,30.12,ENE,68,8.0,18.0,79,0.00,,,0.00,WeatherCatV1.11B39,2013-05-02 22:45:00,
2013-05-02 18:50:00,63.2,56.6,30.12,ENE,68,8.0,18.0,79,0.00,,,0.00,WeatherCatV1.11B39,2013-05-02 22:50:00,
2013-05-02 18:55:00,63.5,56.2,30.11,ENE,68,8.0,14.0,77,0.00,,,0.00,WeatherCatV1.11B39,2013-05-02 22:55:00,
2013-05-02 19:00:00,63.5,56.2,30.11,ENE,68,8.0,14.0,77,0.00,,,0.00,WeatherCatV1.11B39,2013-05-02 23:00:00,
2013-05-02 19:05:00,63.5,56.2,30.11,ENE,68,8.0,14.0,77,0.00,,,0.00,WeatherCatV1.11B39,2013-05-02 23:05:00,
2013-05-02 19:10:00,63.5,56.2,30.11,ENE,68,8.0,14.0,77,0.00,,,0.00,WeatherCatV1.11B39,2013-05-02 23:10:00,
2013-05-02 19:15:00,63.5,56.2,30.11,ENE,68,8.0,14.0,77,0.00,,,0.00,WeatherCatV1.11B39,2013-05-02 23:15:00,
2013-05-02 19:20:00,63.5,56.2,30.11,ENE,68,8.0,14.0,77,0.00,,,0.00,WeatherCatV1.11B39,2013-05-02 23:20:00,
2013-05-02 19:25:00,62.4,55.4,30.12,East,90,8.0,18.0,78,0.00,,,0.00,WeatherCatV1.11B39,2013-05-02 23:25:00,
2013-05-02 19:30:00,62.4,55.4,30.12,East,90,8.0,18.0,78,0.00,,,0.00,WeatherCatV1.11B39,2013-05-02 23:30:00,
2013-05-02 19:35:00,62.4,55.4,30.12,East,90,8.0,18.0,78,0.00,,,0.00,WeatherCatV1.11B39,2013-05-02 23:35:00,
2013-05-02 19:40:00,62.4,55.4,30.12,East,90,8.0,18.0,78,0.00,,,0.00,WeatherCatV1.11B39,2013-05-02 23:40:00,
2013-05-02 19:45:00,62.4,55.4,30.12,East,90,8.0,18.0,78,0.00,,,0.00,WeatherCatV1.11B39,2013-05-02 23:45:00,
2013-05-02 19:50:00,62.4,55.4,30.12,East,90,8.0,18.0,78,0.00,,,0.00,WeatherCatV1.11B39,2013-05-02 23:50:00,
2013-05-02 19:55:00,61.5,56.3,30.12,East,90,8.0,21.0,83,0.00,,,0.00,WeatherCatV1.11B39,2013-05-02 23:55:00,
2013-05-02 20:00:00,61.5,56.3,30.12,East,90,8.0,21.0,83,0.00,,,0.00,WeatherCatV1.11B39,2013-05-03 00:00:00,
2013-05-02 20:05:00,61.5,56.3,30.12,East,90,8.0,21.0,83,0.00,,,0.00,WeatherCatV1.11B39,2013-05-03 00:05:00,
2013-05-02 20:10:00,61.5,56.3,30.12,East,90,8.0,21.0,83,0.00,,,0.00,WeatherCatV1.11B39,2013-05-03 00:10:00,
2013-05-02 20:15:00,61.5,56.3,30.12,East,90,8.0,21.0,83,0.00,,,0.00,WeatherCatV1.11B39,2013-05-03 00:15:00,
2013-05-02 20:20:00,61.5,56.3,30.12,East,90,8.0,21.0,83,0.00,,,0.00,WeatherCatV1.11B39,2013-05-03 00:20:00,
2013-05-02 20:25:00,60.2,56.6,30.14,East,90,8.0,20.0,88,0.00,,,0.00,WeatherCatV1.11B39,2013-05-03 00:25:00,
2013-05-02 20:30:00,60.2,56.6,30.14,East,90,8.0,20.0,88,0.00,,,0.00,WeatherCatV1.11B39,2013-05-03 00:30:00,
2013-05-02 20:35:00,60.2,56.6,30.14,East,90,8.0,20.0,88,0.00,,,0.00,WeatherCatV1.11B39,2013-05-03 00:35:00,
2013-05-02 20:40:00,60.2,56.6,30.14,East,90,8.0,20.0,88,0.00,,,0.00,WeatherCatV1.11B39,2013-05-03 00:40:00,
2013-05-02 20:45:00,60.2,56.6,30.14,East,90,8.0,20.0,88,0.00,,,0.00,WeatherCatV1.11B39,2013-05-03 00:45:00,
2013-05-02 20:50:00,60.2,56.6,30.14,East,90,8.0,20.0,88,0.00,,,0.00,WeatherCatV1.11B39,2013-05-03 00:50:00,
2013-05-02 20:55:00,60.1,56.5,30.14,East,90,6.0,16.0,88,0.00,,,0.00,WeatherCatV1.11B39,2013-05-03 00:55:00,
2013-05-02 21:00:00,60.1,56.5,30.14,East,90,6.0,16.0,88,0.00,,,0.00,WeatherCatV1.11B39,2013-05-03 01:00:00,
2013-05-02 21:05:00,60.1,56.5,30.14,East,90,6.0,16.0,88,0.00,,,0.00,WeatherCatV1.11B39,2013-05-03 01:05:00,
2013-05-02 21:10:00,60.1,56.5,30.14,East,90,6.0,16.0,88,0.00,,,0.00,WeatherCatV1.11B39,2013-05-03 01:10:00,
2013-05-02 21:15:00,60.1,56.5,30.14,East,90,6.0,16.0,88,0.00,,,0.00,WeatherCatV1.11B39,2013-05-03 01:15:00,
2013-05-02 21:20:00,60.1,56.5,30.14,East,90,6.0,16.0,88,0.00,,,0.00,WeatherCatV1.11B39,2013-05-03 01:20:00,
2013-05-02 21:25:00,59.8,56.2,30.14,ENE,68,7.0,14.0,88,0.00,,,0.00,WeatherCatV1.11B39,2013-05-03 01:25:00,
2013-05-02 21:30:00,59.8,56.2,30.14,ENE,68,7.0,14.0,88,0.00,,,0.00,WeatherCatV1.11B39,2013-05-03 01:30:00,
2013-05-02 21:35:00,59.8,56.2,30.14,ENE,68,7.0,14.0,88,0.00,,,0.00,WeatherCatV1.11B39,2013-05-03 01:35:00,
2013-05-02 21:40:00,59.8,56.2,30.14,ENE,68,7.0,14.0,88,0.00,,,0.00,WeatherCatV1.11B39,2013-05-03 01:40:00,
2013-05-02 21:45:00,59.8,56.2,30.14,ENE,68,7.0,14.0,88,0.00,,,0.00,WeatherCatV1.11B39,2013-05-03 01:45:00,
2013-05-02 21:50:00,59.8,56.2,30.14,ENE,68,7.0,14.0,88,0.00,,,0.00,WeatherCatV1.11B39,2013-05-03 01:50:00,
2013-05-02 21:55:00,59.9,56.0,30.15,East,90,7.0,17.0,87,0.00,,,0.00,WeatherCatV1.11B39,2013-05-03 01:55:00,
2013-05-02 22:00:00,59.9,56.0,30.15,East,90,7.0,17.0,87,0.00,,,0.00,WeatherCatV1.11B39,2013-05-03 02:00:00,
2013-05-02 22:05:00,59.9,56.0,30.15,East,90,7.0,17.0,87,0.00,,,0.00,WeatherCatV1.11B39,2013-05-03 02:05:00,
2013-05-02 22:10:00,59.9,56.0,30.15,East,90,7.0,17.0,87,0.00,,,0.00,WeatherCatV1.11B39,2013-05-03 02:10:00,
2013-05-02 22:15:00,59.9,56.0,30.15,East,90,7.0,17.0,87,0.00,,,0.00,WeatherCatV1.11B39,2013-05-03 02:15:00,
2013-05-02 22:20:00,59.9,56.0,30.15,East,90,7.0,17.0,87,0.00,,,0.00,WeatherCatV1.11B39,2013-05-03 02:20:00,
2013-05-02 22:25:00,60.2,55.3,30.15,East,90,6.0,14.0,84,0.00,,,0.00,WeatherCatV1.11B39,2013-05-03 02:25:00,
2013-05-02 22:30:00,60.2,55.3,30.15,East,90,6.0,14.0,84,0.00,,,0.00,WeatherCatV1.11B39,2013-05-03 02:30:00,
2013-05-02 22:35:00,60.2,55.3,30.15,East,90,6.0,14.0,84,0.00,,,0.00,WeatherCatV1.11B39,2013-05-03 02:35:00,
2013-05-02 22:40:00,60.2,55.3,30.15,East,90,6.0,14.0,84,0.00,,,0.00,WeatherCatV1.11B39,2013-05-03 02:40:00,
2013-05-02 22:45:00,60.2,55.3,30.15,East,90,6.0,14.0,84,0.00,,,0.00,WeatherCatV1.11B39,2013-05-03 02:45:00,
2013-05-02 22:50:00,60.2,55.3,30.15,East,90,6.0,14.0,84,0.00,,,0.00,WeatherCatV1.11B39,2013-05-03 02:50:00,
2013-05-02 22:55:00,60.4,55.2,30.14,ENE,68,6.0,13.0,83,0.00,,,0.00,WeatherCatV1.11B39,2013-05-03 02:55:00,
2013-05-02 23:00:00,60.4,55.2,30.14,ENE,68,6.0,13.0,83,0.00,,,0.00,WeatherCatV1.11B39,2013-05-03 03:00:00,
2013-05-02 23:05:00,60.4,55.2,30.14,ENE,68,6.0,13.0,83,0.00,,,0.00,WeatherCatV1.11B39,2013-05-03 03:05:00,
2013-05-02 23:10:00,60.4,55.2,30.14,ENE,68,6.0,13.0,83,0.00,,,0.00,WeatherCatV1.11B39,2013-05-03 03:10:00,
2013-05-02 23:15:00,60.4,55.2,30.14,ENE,68,6.0,13.0,83,0.00,,,0.00,WeatherCatV1.11B39,2013-05-03 03:15:00,
2013-05-02 23:20:00,60.4,55.2,30.14,ENE,68,6.0,13.0,83,0.00,,,0.00,WeatherCatV1.11B39,2013-05-03 03:20:00,
2013-05-02 23:25:00,60.5,55.3,30.14,ENE,68,7.0,17.0,83,0.00,,,0.00,WeatherCatV1.11B39,2013-05-03 03:25:00,
2013-05-02 23:30:00,60.5,55.3,30.14,ENE,68,7.0,17.0,83,0.00,,,0.00,WeatherCatV1.11B39,2013-05-03 03:30:00,
2013-05-02 23:35:00,60.5,55.3,30.14,ENE,68,7.0,17.0,83,0.00,,,0.00,WeatherCatV1.11B39,2013-05-03 03:35:00,
2013-05-02 23:40:00,60.5,55.3,30.14,ENE,68,7.0,17.0,83,0.00,,,0.00,WeatherCatV1.11B39,2013-05-03 03:40:00,
2013-05-02 23:45:00,60.5,55.3,30.14,ENE,68,7.0,17.0,83,0.00,,,0.00,WeatherCatV1.11B39,2013-05-03 03:45:00,
2013-05-02 23:50:00,60.5,55.3,30.14,ENE,68,7.0,17.0,83,0.00,,,0.00,WeatherCatV1.11B39,2013-05-03 03:50:00,
2013-05-02 23:55:00,60.5,55.3,30.13,East,90,7.0,14.0,83,0.00,,,0.00,WeatherCatV1.11B39,2013-05-03 03:55:00,